Tracking 35055 objects as of 19-Aug-2026
HD Live streaming from Space Station
objects crossing your sky now

GALILEO 27 (223)

Track GALILEO 27 (223) now!
GALILEO 27 (223) is classified as:


NORAD ID: 49809
Int'l Code: 2021-117A
Launch date: December 5, 2021
Source: France (FR)
Launch site: FRENCH GUIANA (FRGUI)
Your satellite tracking list
Your tracking list is empty




NASA's NSSDC Master Catalog

Two Line Element Set (TLE):
1 49809U 21116A   26226.06865080 -.00000108  00000-0  00000+0 0  9991
2 49809  57.1377 340.1124 0003288 208.7644 154.2753  1.70476184 29173
Source of the keplerian elements: AFSPC